{"data":{"norad_id":65652,"intl_designator":"2025-211A","name":"STARLINK-35328","alt_names":[],"object_type":"PAYLOAD","status":"ACTIVE","operator":null,"country":"US","launch_date":"2025-09-19","launch_site_code":"AFWTR","launch_vehicle":null,"mission":null,"orbit_class":"UNKNOWN","rcs_meters":null,"size_class":null,"mass_kg":null,"dimensions":null,"purposes":["comms"],"wikipedia_slug":null,"has_3d_model":false,"image_url":null,"decayed_at":null,"tle_current":{"epoch":"2026-05-25T02:03:23.761152Z","epoch_age_seconds":70715,"freshness":"FRESH","line1":"1 65652U 25211A   26145.08569168  .00004075  00000+0  28632-3 0  9995","line2":"2 65652  97.4494 188.9456 0001977 182.3762 177.7456 15.05648350 38530","mean_motion":15.0564835,"eccentricity":0.0001977,"inclination_deg":97.4494,"raan_deg":188.9456,"arg_perigee_deg":182.3762,"mean_anomaly_deg":177.7456,"bstar":0.00028632,"rev_number":3853,"period_min":95.639861724685,"perigee_km":548.14661821449,"apogee_km":550.88581229581,"semimajor_km":6927.6532152551,"source":"CELESTRAK","updated_at":"2026-05-25T13:38:20.887404Z"}}}